Home   Weather   Paris   Past weeks
Flag for USA

Past Weather in Paris, Maryland, USA — Yesterday and Last 2 Weeks

Now
67 °F

Passing clouds.


Feels Like: 67 °F
Forecast: 66 / 41 °F
Wind: 10 mph from Northeast

Location: Reagan National Airport
Current Time: Sep 20, 2020 at 2:38:10 pm
Latest Report: Sep 20, 2020 at 1:52 pm
Visibility: 10 mi
Pressure30.49 "Hg
Humidity: 37%
Dew Point: 40 °F
Location of ParisLocation

Past Weather in Paris — Graph

°F

Paris Temperature Yesterday

Maximum temperature yesterday: 66 °F (at 2:52 pm)
Minimum temperature yesterday: 50 °F (at 6:52 am)
Average temperature yesterday: 58 °F

High & Low Weather Summary for the Past Weeks

 TemperatureHumidityPressure
High86 °F (Sep 8, 3:52 pm)97% (Sep 9, 9:20 pm)30.50 "Hg (Sep 9, 9:20 pm)
Low47 °F (Sep 20, 5:52 am)31% (Sep 19, 4:52 pm)29.88 "Hg (Sep 18, 4:52 am)
Average71 °F74%30.17 "Hg
* Reported Sep 5 12:52 pm — Sep 20 12:52 pm, Paris. Weather by CustomWeather, © 2020

Note: Actual official high and low records may vary slightly from our data, if they occured in-between our weather recording intervals... More about our weather records

Paris Weather History for the Previous 24 Hours

Scroll right to see more
 ConditionsComfort  
Time TempWeatherWind HumidityBarometerVisibility
12:52 pm
Sun, Sep 20
67 °FPassing clouds.14 mph36%30.49 "Hg10 mi
11:52 am65 °FPassing clouds.10 mph39%30.50 "Hg10 mi
10:52 am64 °FPassing clouds.9 mph47%30.49 "Hg10 mi
9:52 am60 °FPassing clouds.9 mph49%30.48 "Hg10 mi
8:52 am56 °FPassing clouds.9 mph60%30.47 "Hg10 mi
7:52 am50 °FPassing clouds.7 mph83%30.45 "Hg10 mi
6:52 am47 °FPassing clouds.7 mph83%30.43 "Hg10 mi
5:52 am47 °FClear.6 mph86%30.42 "Hg10 mi
4:52 am48 °FClear.6 mph83%30.40 "Hg10 mi
3:52 am48 °FClear.6 mph83%30.40 "Hg10 mi
2:52 am50 °FClear.5 mph77%30.40 "Hg10 mi
1:52 am51 °FPassing clouds.6 mph74%30.39 "Hg10 mi
12:52 am53 °FPassing clouds.6 mph66%30.38 "Hg10 mi
11:52 pm
Sat, Sep 19
55 °FPassing clouds.3 mph64%30.38 "Hg10 mi
10:52 pm56 °FPassing clouds.3 mph65%30.37 "Hg10 mi
9:52 pm58 °FPassing clouds.5 mph65%30.37 "Hg10 mi
8:52 pm59 °FPassing clouds.5 mph51%30.35 "Hg10 mi
7:52 pm61 °FPassing clouds.8 mph44%30.33 "Hg10 mi
6:52 pm62 °FScattered clouds.9 mph38%30.32 "Hg10 mi
5:52 pm65 °FScattered clouds.6 mph34%30.32 "Hg10 mi
4:52 pm66 °FScattered clouds.6 mph31%30.31 "Hg10 mi
3:52 pm66 °FScattered clouds.10 mph32%30.32 "Hg10 mi
2:52 pm66 °FScattered clouds.10 mph33%30.33 "Hg10 mi
Weather by CustomWeather, © 2020

See weather overview